| time (UTC) | temp F | wind direction | speed MPH | gust MPH | rain 1hr in | rain 24hr in | rain mn in | humidity % | barometer mb |
| 20260904234500 | 89 | 97 | 0.0 | 0.0 | 0.00 | 0.00 | 0.00 | 71 | 1014.7 |
| 20260904231459 | 92 | 93 | 0.0 | 0.0 | 0.00 | 0.00 | 0.00 | 62 | 1014.4 |
| 20260904224459 | 94 | 86 | 0.0 | 0.0 | 0.00 | 0.00 | 0.00 | 56 | 1013.9 |
| 20260904221456 | 96 | 80 | 0.0 | 0.0 | 0.00 | 0.00 | 0.00 | 50 | 1013.8 |
| 20260904214455 | 97 | 80 | 0.0 | 0.0 | 0.00 | 0.00 | 0.00 | 52 | 1013.8 |
| 20260904211451 | 98 | 80 | 0.0 | 0.0 | 0.00 | 0.00 | 0.00 | 52 | 1013.8 |
| 20260904204448 | 98 | 80 | 0.0 | 0.0 | 0.00 | 0.00 | 0.00 | 51 | 1013.9 |
| 20260904201446 | 98 | 80 | 0.0 | 0.0 | 0.00 | 0.00 | 0.00 | 51 | 1014.4 |
| 20260904194444 | 98 | 80 | 0.0 | 0.0 | 0.00 | 0.00 | 0.00 | 51 | 1014.9 |
| 20260904191441 | 97 | 80 | 0.0 | 0.0 | 0.00 | 0.00 | 0.00 | 52 | 1015.3 |
| 20260904184436 | 98 | 80 | 0.0 | 0.0 | 0.00 | 0.00 | 0.00 | 53 | 1015.9 |
| 20260904181436 | 96 | 80 | 0.0 | 0.0 | 0.00 | 0.00 | 0.00 | 54 | 1016.4 |
| 20260904174432 | 96 | 80 | 0.0 | 0.0 | 0.00 | 0.00 | 0.00 | 57 | 1016.6 |
| 20260904171427 | 97 | 80 | 0.0 | 0.0 | 0.00 | 0.00 | 0.00 | 57 | 1017.0 |
| 20260904164424 | 94 | 80 | 0.0 | 0.0 | 0.00 | 0.00 | 0.00 | 60 | 1017.4 |
| 20260904161423 | 93 | 80 | 0.0 | 0.0 | 0.00 | 0.00 | 0.00 | 62 | 1017.6 |
| 20260904154420 | 91 | 80 | 0.0 | 0.0 | 0.00 | 0.00 | 0.00 | 64 | 1018.1 |
| 20260904151420 | 90 | 80 | 0.0 | 0.0 | 0.00 | 0.00 | 0.00 | 68 | 1017.8 |
| 20260904144419 | 89 | 80 | 0.0 | 0.0 | 0.00 | 0.00 | 0.00 | 70 | 1017.6 |
| 20260904141415 | 86 | 80 | 0.0 | 0.0 | 0.00 | 0.00 | 0.00 | 76 | 1017.2 |
| 20260904134413 | 81 | 80 | 0.0 | 0.0 | 0.00 | 0.00 | 0.00 | 88 | 1017.5 |
| 20260904131411 | 77 | 80 | 0.0 | 0.0 | 0.00 | 0.00 | 0.00 | 98 | 1017.7 |
| 20260904124411 | 74 | 80 | 0.0 | 0.0 | 0.00 | 0.00 | 0.00 | 99 | 1017.1 |
| 20260904121410 | 73 | 80 | 0.0 | 0.0 | 0.00 | 0.00 | 0.00 | 99 | 1016.8 |
| 20260904114410 | 72 | 80 | 0.0 | 0.0 | 0.00 | 0.00 | 0.00 | 99 | 1016.4 |
| 20260904111408 | 72 | 80 | 0.0 | 0.0 | 0.00 | 0.00 | 0.00 | 99 | 1016.1 |
| 20260904104407 | 73 | 80 | 0.0 | 0.0 | 0.00 | 0.00 | 0.00 | 99 | 1015.8 |
| 20260904101405 | 73 | 80 | 0.0 | 0.0 | 0.00 | 0.00 | 0.00 | 99 | 1015.9 |
| 20260904094405 | 73 | 80 | 0.0 | 0.0 | 0.00 | 0.00 | 0.00 | 99 | 1015.8 |
| 20260904091402 | 73 | 80 | 0.0 | 0.0 | 0.00 | 0.00 | 0.00 | 99 | 1015.7 |
| 20260904084357 | 74 | 80 | 0.0 | 0.0 | 0.00 | 0.00 | 0.00 | 99 | 1015.4 |
| 20260904081352 | 74 | 80 | 0.0 | 0.0 | 0.00 | 0.00 | 0.00 | 99 | 1015.6 |
| 20260904074351 | 75 | 80 | 0.0 | 0.0 | 0.00 | 0.00 | 0.00 | 99 | 1015.6 |
| 20260904071347 | 75 | 80 | 0.0 | 0.0 | 0.00 | 0.00 | 0.00 | 99 | 1015.6 |
| 20260904064345 | 75 | 80 | 0.0 | 0.0 | 0.00 | 0.00 | 0.00 | 99 | 1015.5 |
| 20260904061342 | 75 | 80 | 0.0 | 0.0 | 0.00 | 0.00 | 0.00 | 99 | 1015.7 |
| 20260904054339 | 76 | 80 | 0.0 | 0.0 | 0.00 | 0.00 | 0.00 | 99 | 1015.6 |
| 20260904051336 | 77 | 80 | 0.0 | 0.0 | 0.00 | 0.00 | 0.00 | 99 | 1015.9 |
| 20260904044336 | 77 | 80 | 0.0 | 0.0 | 0.00 | 0.00 | 0.00 | 99 | 1015.9 |
| 20260904041333 | 78 | 80 | 0.0 | 0.0 | 0.00 | 0.00 | 0.00 | 98 | 1016.0 |
| 20260904034328 | 78 | 80 | 0.0 | 0.0 | 0.00 | 0.00 | 0.00 | 98 | 1016.0 |
| 20260904031323 | 79 | 82 | 0.0 | 0.0 | 0.00 | 0.00 | 0.00 | 97 | 1016.0 |
| 20260904024319 | 79 | 87 | 0.0 | 0.0 | 0.00 | 0.00 | 0.00 | 96 | 1016.4 |
| 20260904021315 | 80 | 91 | 0.0 | 0.0 | 0.00 | 0.00 | 0.00 | 94 | 1016.1 |
| 20260904014310 | 81 | 95 | 0.0 | 0.0 | 0.00 | 0.00 | 0.00 | 92 | 1016.0 |
| 20260904011311 | 82 | 98 | 0.0 | 0.0 | 0.00 | 0.00 | 0.00 | 90 | 1015.7 |
| 20260904004307 | 84 | 98 | 0.0 | 0.0 | 0.00 | 0.00 | 0.00 | 87 | 1015.5 |
| 20260904001307 | 85 | 98 | 0.0 | 0.0 | 0.00 | 0.00 | 0.00 | 82 | 1015.3 |